Location: *
(2.5500°S, 65.9667°W)
Time: 13:52:14
(UTC+00:00)

SRMSAT - Pass Details

Date: 30 June 2022
Orbit: 848 x 865 km, 20.0° (Epoch: 18 August)

Event Time Altitude Azimuth Distance (km) Brightness Sun altitude
Rises 23:21:08 0° 277° (W) 3,422 ? -13.3°
Reaches altitude 10° 23:24:15 10° 291° (WNW) 2,481 ? -14.0°
Maximum altitude 23:28:49 23° 341° (NNW) 1,753 ? -15.1°
Drops below altitude 10° 23:33:22 10° 32° (NNE) 2,468 ? -16.1°
Sets 23:36:29 0° 46° (NE) 3,400 ? -16.8°
